Wetbulb
55.41 52.48 50.84 48.48 41.69 38.10 33.99 36.98 40.60 39.87 41.52 44.94 43.64 42.32 43.32 41.85 41.44 38.37 49.97 58.10 62.41 64.80 68.18 71.23 73.03 74.18 74.24 74.16 73.84 73.35 72.76 72.36 72.23 71.91 72.14 72.93 72.90 72.73 72.07 71.31 70.74 70.32 69.57 69.08 68.53 68.24 67.83 66.73 66.58
52.95 53.12 48.80 42.16 36.61 32.38 34.67 36.91 38.55 40.47 41.99 43.37 44.03 43.00 43.24 41.44 45.47 50.29 53.40 58.55 62.81 65.49 69.10 70.45 71.66 73.66 74.35 74.15 73.54 73.15 72.89 72.47 72.00 71.44 71.65 72.26 72.36 71.99 71.49 70.81 70.00 69.54 69.28 68.49 68.17 67.14 66.13 65.23 64.88
52.59 50.39 44.75 38.28 32.94 32.74 34.66 38.03 40.88 41.70 41.94 45.19 44.47 46.66 44.68 42.90 48.20 51.55 54.20 59.24 64.36 65.75 68.44 70.06 71.32 73.39 74.20 73.89 73.35 72.99 72.84 72.80 72.10 71.48 71.25 71.21 71.55 71.53 71.57 70.54 69.71 69.09 68.58 67.77 66.99 65.76 64.09 63.12 62.65
49.86 47.04 42.24 36.63 34.31 36.64 37.71 40.11 39.23 42.21 44.85 43.42 44.69 43.00 42.83 46.65 47.24 52.20 56.43 59.94 63.50 65.50 67.89 69.46 71.68 73.58 73.88 73.62 73.28 72.96 72.76 72.57 72.33 71.90 71.46 71.43 71.67 71.67 71.13 70.23 69.06 68.01 67.49 66.76 65.89 64.44 62.61 61.12 59.99
45.10 41.74 36.68 34.44 34.99 37.82 38.80 39.68 39.98 40.23 43.71 44.39 44.77 42.44 42.18 46.33 53.82 55.39 56.38 61.60 61.71 63.72 66.37 68.01 70.99 72.66 73.28 73.31 73.15 72.96 72.81 72.81 72.72 72.42 72.30 72.44 71.98 70.96 70.36 69.89 68.50 67.12 66.03 65.20 64.89 62.96 61.13 59.28 57.77
43.23 39.61 34.74 32.03 34.86 37.13 39.32 39.45 40.44 38.98 39.66 42.66 43.49 42.15 43.53 46.40 51.25 53.45 55.70 55.32 61.34 63.58 65.58 67.40 67.75 69.93 71.48 72.28 72.48 72.38 72.31 72.39 72.58 72.58 72.25 72.09 71.02 70.29 69.77 69.31 68.01 66.60 65.18 64.52 63.95 61.76 59.93 57.88 56.48
40.61 35.91 33.22 32.90 33.48 36.51 38.78 40.53 41.86 41.70 39.57 43.68 45.03 41.90 43.72 48.12 47.92 50.01 54.03 53.01 56.02 61.08 64.18 65.45 67.19 68.02 67.84 69.53 70.12 70.83 71.48 71.55 71.25 71.41 71.36 70.83 70.46 69.94 69.09 68.22 68.01 66.27 64.98 64.13 63.66 60.83 59.04 57.13 55.61
40.75 37.87 33.21 32.10 33.44 34.78 39.62 40.46 40.69 43.22 39.78 43.48 42.79 40.45 41.58 46.20 48.44 52.11 53.67 54.93 54.47 58.49 62.30 63.46 65.09 68.99 67.85 68.00 66.29 66.86 68.96 69.69 69.98 69.30 68.17 67.09 67.45 67.36 66.79 65.32 66.50 66.47 65.08 63.96 63.22 60.20 58.61 57.01 54.68
40.44 34.63 31.73 34.18 35.25 37.07 39.89 40.60 40.68 41.41 40.23 41.84 42.07 44.96 42.97 47.36 48.74 49.72 49.01 49.94 51.60 55.03 56.50 61.80 63.57 67.62 68.21 69.19 66.21 64.88 66.18 66.82 67.09 66.97 65.50 63.37 65.19 64.51 62.91 62.47 64.70 66.45 65.72 64.17 62.97 60.02 58.50 55.90 52.26
38.28 32.80 34.45 37.02 40.01 40.13 39.93 39.70 40.66 42.39 40.62 39.10 40.45 43.63 44.71 44.36 44.41 43.60 41.96 41.72 42.31 44.58 49.84 55.33 61.22 65.48 67.16 67.83 68.16 67.90 66.68 68.16 67.95 67.63 66.39 65.16 64.24 63.85 62.94 60.64 62.34 64.30 63.68 64.17 62.62 60.10 57.31 48.52 39.02
38.45 35.55 37.58 39.92 41.23 40.81 40.03 39.81 40.75 40.45 38.80 39.43 39.73 42.30 41.97 40.90 40.83 40.47 40.11 39.61 39.56 40.71 42.70 43.86 48.16 60.78 65.89 66.74 67.15 67.35 67.83 66.25 67.04 66.84 66.26 65.29 63.90 62.07 61.66 60.85 61.32 60.96 58.61 56.93 57.44 53.45 49.60 43.27 38.63
38.60 41.22 41.00 42.95 42.77 41.04 39.39 41.54 40.54 40.64 41.18 42.62 41.11 40.57 39.65 39.22 39.06 39.00 38.93 39.36 39.36 40.21 41.45 42.56 42.87 44.82 61.85 65.83 66.48 66.48 66.35 65.11 63.06 64.73 65.17 64.01 62.78 61.63 60.53 59.73 59.34 58.79 57.26 56.01 53.56 50.72 48.25 44.71 41.76
39.63 39.54 41.24 42.62 42.35 41.13 41.14 40.06 39.47 41.51 41.29 41.19 41.37 39.95 38.05 37.77 37.77 38.22 38.75 39.30 39.04 39.37 40.72 41.73 42.63 43.56 54.09 63.18 64.89 65.25 65.23 65.86 65.05 64.29 63.68 62.98 62.09 60.99 60.12 59.31 58.26 57.64 56.21 55.36 53.59 50.65 48.00 45.37 41.20
38.83 39.61 40.66 41.38 40.66 40.30 39.99 37.78 38.36 39.10 39.74 40.21 39.55 37.04 36.75 36.89 36.67 36.74 37.39 37.45 37.76 39.11 39.71 41.34 43.23 45.30 50.03 58.77 61.91 63.43 63.99 63.97 64.50 64.17 63.01 61.60 61.51 60.52 59.81 58.69 56.95 56.70 55.77 54.94 51.57 49.41 47.57 45.13 39.99
39.68 37.68 38.46 38.22 38.47 39.13 39.87 36.75 38.44 39.70 39.87 38.02 36.39 35.74 36.42 36.45 36.65 35.49 36.44 36.50 36.75 38.07 39.22 40.45 43.29 45.87 53.92 56.98 58.30 61.52 62.97 62.86 62.73 62.81 62.85 62.16 61.41 60.70 59.30 57.71 56.89 56.91 55.30 53.27 51.13 49.29 47.15 44.26 39.81
35.66 34.33 32.32 36.40 38.17 38.28 38.95 35.59 39.86 39.39 39.76 35.62 34.84 33.78 35.07 35.58 35.70 35.80 36.29 36.31 36.90 37.24 37.94 40.08 42.49 44.86 53.04 55.80 57.00 58.50 58.51 58.55 58.86 59.96 60.93 61.11 61.13 61.01 59.52 58.17 56.84 56.34 54.53 52.80 50.74 49.14 47.10 45.12 42.18
32.17 30.09 29.65 35.03 38.25 37.45 36.19 34.85 40.32 39.73 37.83 34.24 33.19 33.41 34.37 34.21 34.82 35.05 35.17 35.23 35.88 36.29 37.08 38.54 40.34 41.83 48.28 51.26 51.82 51.26 50.94 51.07 50.94 51.58 53.16 55.84 57.01 58.51 58.99 57.72 57.35 56.00 53.93 51.81 50.73 47.78 46.78 45.00 42.72
30.13 28.65 30.41 31.24 35.40 36.38 34.12 36.36 39.49 37.87 36.32 32.93 31.94 32.25 32.81 32.91 33.04 34.15 34.06 34.48 34.95 35.32 36.64 37.57 39.28 39.65 42.63 46.76 46.11 45.69 44.65 44.57 45.43 44.45 45.66 47.23 49.58 52.52 54.00 53.81 53.12 53.20 52.28 50.25 48.62 47.13 43.19 41.45 41.07
32.79 30.64 31.06 32.47 36.93 34.44 35.17 34.71 37.00 34.90 33.04 31.95 31.70 31.76 31.83 32.09 33.69 33.68 33.57 33.02 33.63 34.64 35.69 36.14 37.06 37.78 40.05 39.97 41.85 41.34 39.34 39.94 40.60 41.10 41.60 41.67 42.39 45.51 47.71 48.97 48.78 49.83 48.50 47.45 46.04 43.92 43.33 42.65 39.11
32.08 30.20 30.23 33.94 35.81 35.21 33.67 34.66 33.08 33.61 32.34 32.71 31.92 31.21 31.04 30.81 31.31 32.20 31.88 31.59 31.33 31.78 33.20 34.62 35.68 36.50 37.88 38.39 38.48 38.38 38.00 37.37 37.66 39.20 38.84 38.75 39.27 40.18 41.65 44.02 45.07 45.47 46.04 45.67 44.53 43.22 41.93 40.98 39.34
31.14 30.35 30.49 33.11 33.01 32.50 30.78 31.18 30.87 32.17 32.79 33.08 32.58 32.23 31.72 30.50 30.09 30.02 29.98 29.35 29.37 29.79 29.96 32.19 32.92 34.48 35.60 36.93 37.51 37.07 36.51 35.18 34.60 34.33 34.65 34.46 34.95 35.88 36.79 37.61 39.34 41.15 42.47 42.34 42.73 42.24 41.54 40.38 39.90
30.48 35.44 34.89 32.91 31.24 27.57 30.51 25.11 28.77 30.31 30.27 31.08 30.94 29.49 29.64 30.06 30.25 30.10 29.10 28.63 28.50 28.63 29.49 30.40 31.19 31.47 32.95 34.13 34.00 32.59 31.43 29.85 30.50 31.12 31.66 31.85 32.13 31.93 32.89 34.02 34.80 35.32 36.01 35.77 38.18 40.70 39.84 39.26 38.24
34.35 35.54 33.63 31.76 28.64 26.11 26.30 24.79 27.48 29.51 28.54 28.97 29.15 29.50 29.20 29.77 29.64 28.84 28.37 29.04 28.62 28.61 28.00 28.60 29.77 30.09 30.40 30.59 30.86 30.26 28.97 29.00 28.44 28.90 29.27 29.67 30.33 30.63 30.78 30.86 30.93 31.13 31.97 32.13 33.24 34.37 35.37 37.16 36.13
35.65 33.18 31.27 28.35 26.86 22.08 27.36 27.65 25.93 27.96 30.32 29.46 29.95 29.63 30.11 29.83 29.61 29.16 28.90 28.49 27.51 27.41 27.52 27.45 28.21 28.05 28.56 28.83 28.57 28.21 27.43 26.93 27.22 26.86 26.99 27.47 28.22 28.66 29.00 29.53 29.01 29.34 29.47 29.47 30.31 31.15 32.29 33.30 34.47
32.91 30.18 24.32 21.82 20.61 22.36 25.51 24.10 28.46 31.68 31.47 31.90 30.54 29.74 29.67 29.57 28.41 28.24 27.68 26.35 26.35 26.59 27.11 28.07 27.31 26.88 27.22 27.18 26.88 26.56 25.87 25.91 25.63 25.63 25.76 25.93 26.01 25.89 26.70 27.61 27.62 27.81 28.28 28.46 28.75 28.05 28.74 29.64 30.31
30.75 31.04 25.25 16.85 17.47 20.66 26.24 24.18 29.50 30.39 30.76 31.46 32.48 31.04 29.89 29.05 29.02 28.66 28.05 26.74 26.04 26.35 26.46 26.84 26.73 26.25 26.38 26.09 25.57 25.58 25.87 25.74 25.29 25.08 24.79 24.53 24.98 25.66 26.11 25.94 26.40 26.16 26.89 27.10 26.81 26.52 26.50 27.31 28.41
30.33 28.12 31.19 24.69 12.74 17.57 25.00 27.62 30.60 29.73 28.46 28.38 28.34 28.64 28.39 28.75 28.95 29.21 28.90 27.53 26.51 25.78 25.86 26.36 26.34 26.17 25.79 25.50 25.26 24.90 24.83 24.61 24.08 23.71 24.04 23.74 24.14 26.81 24.56 24.30 24.11 24.67 24.83 24.92 25.15 24.22 24.11 24.88 25.58
32.45 34.13 27.88 25.95 16.12 12.77 22.67 23.97 26.45 28.18 27.96 27.86 27.65 28.04 28.69 29.32 29.41 29.28 28.95 28.17 27.40 26.49 25.75 25.59 26.02 25.87 25.64 25.35 25.37 25.02 24.29 24.40 23.99 24.13 23.96 24.06 24.14 24.30 24.14 24.14 23.85 23.67 23.91 23.60 23.01 22.83 23.86 23.14 23.44
30.16 29.11 28.70 29.15 25.38 18.13 14.37 21.65 28.88 30.20 29.69 28.31 29.11 30.07 30.13 30.19 29.63 29.14 28.98 28.90 28.04 26.72 25.72 25.16 24.85 24.77 25.08 25.50 24.93 24.70 24.59 24.41 24.54 24.40 24.03 24.06 24.25 24.16 24.12 24.00 23.62 23.28 22.86 22.84 22.07 21.72 22.12 21.85 22.23
30.82 30.65 30.60 26.99 22.13 20.78 21.66 25.39 31.28 30.82 31.11 31.27 30.82 31.82 31.16 31.14 30.75 29.52 29.16 27.96 26.51 25.95 25.50 24.87 24.85 24.71 25.28 25.06 25.25 25.06 24.92 24.66 24.11 23.71 23.88 23.96 23.71 24.07 23.65 23.73 23.07 22.76 22.62 22.02 21.68 21.20 21.24 20.70 20.99
MSLP
1014.43 1014.50 1014.69 1015.22 1016.99 1017.62 1017.81 1017.18 1016.36 1015.86 1015.55 1015.28 1015.14 1015.25 1015.47 1015.50 1015.77 1016.28 1015.55 1015.55 1015.80 1015.88 1016.03 1016.35 1016.61 1016.91 1017.25 1017.58 1017.89 1018.13 1018.31 1018.49 1018.69 1018.89 1019.00 1019.24 1019.46 1019.57 1019.79 1020.05 1020.19 1020.30 1020.36 1020.50 1020.59 1020.71 1020.75 1020.77 1020.80
1014.48 1014.57 1015.12 1016.41 1017.63 1018.46 1018.27 1016.97 1016.23 1015.66 1015.37 1015.21 1015.20 1015.25 1015.37 1015.55 1015.44 1015.50 1015.49 1015.53 1015.67 1015.88 1016.05 1016.29 1016.54 1016.78 1017.08 1017.45 1017.84 1018.13 1018.35 1018.58 1018.84 1019.06 1019.34 1019.57 1019.74 1019.86 1020.04 1020.30 1020.44 1020.60 1020.67 1020.79 1020.88 1020.97 1021.04 1021.12 1021.03
1014.48 1014.77 1016.11 1017.23 1018.51 1018.49 1017.63 1016.64 1016.02 1015.51 1015.31 1015.24 1015.29 1015.25 1015.40 1015.52 1015.41 1015.47 1015.47 1015.65 1015.82 1015.99 1016.12 1016.32 1016.54 1016.76 1017.01 1017.36 1017.70 1018.04 1018.36 1018.67 1018.93 1019.17 1019.41 1019.65 1019.86 1019.99 1020.13 1020.36 1020.57 1020.72 1020.88 1021.03 1021.15 1021.31 1021.30 1021.33 1021.30
1014.79 1015.59 1017.28 1017.65 1018.27 1017.68 1017.15 1016.39 1015.97 1015.61 1015.38 1015.24 1015.33 1015.51 1015.47 1015.36 1015.54 1015.62 1015.59 1015.74 1016.06 1016.16 1016.29 1016.52 1016.75 1016.89 1017.11 1017.40 1017.72 1018.07 1018.39 1018.74 1019.03 1019.28 1019.48 1019.64 1019.78 1019.96 1020.11 1020.39 1020.68 1020.84 1021.02 1021.18 1021.28 1021.44 1021.47 1021.49 1021.48
1015.64 1016.80 1017.93 1018.37 1018.13 1017.51 1016.97 1016.45 1016.05 1015.82 1015.62 1015.46 1015.42 1015.67 1015.70 1015.58 1015.76 1015.82 1015.95 1016.11 1016.31 1016.57 1016.62 1016.77 1016.93 1017.15 1017.43 1017.76 1018.06 1018.34 1018.63 1018.88 1019.09 1019.28 1019.49 1019.65 1019.77 1019.92 1020.24 1020.51 1020.68 1020.79 1020.93 1021.19 1021.39 1021.55 1021.62 1021.72 1021.69
1016.80 1017.77 1018.58 1018.75 1018.01 1017.32 1016.82 1016.50 1016.17 1016.00 1015.68 1015.56 1015.59 1015.69 1015.82 1015.69 1015.85 1016.09 1016.24 1016.33 1016.25 1016.45 1016.49 1016.66 1016.88 1017.15 1017.43 1017.72 1018.12 1018.41 1018.69 1018.94 1019.08 1019.35 1019.49 1019.69 1019.97 1020.21 1020.41 1020.59 1020.75 1020.89 1021.01 1021.24 1021.56 1021.77 1021.87 1021.91 1021.92
1017.28 1018.54 1019.05 1018.69 1018.14 1017.33 1016.87 1016.47 1016.24 1016.02 1015.86 1015.77 1015.80 1015.99 1015.98 1016.01 1016.16 1016.19 1016.25 1016.35 1016.50 1016.67 1016.83 1016.93 1017.06 1017.22 1017.37 1017.61 1017.97 1018.32 1018.64 1018.92 1019.06 1019.28 1019.50 1019.75 1019.96 1020.22 1020.47 1020.67 1020.86 1021.00 1021.11 1021.33 1021.63 1021.93 1022.09 1022.17 1022.16
1017.54 1018.63 1019.10 1018.57 1018.05 1017.31 1016.79 1016.49 1016.28 1016.22 1016.11 1015.95 1015.93 1016.35 1016.52 1016.61 1016.66 1016.53 1016.65 1016.83 1016.94 1017.13 1017.26 1017.40 1017.46 1017.53 1017.73 1017.88 1017.98 1018.20 1018.45 1018.70 1019.04 1019.32 1019.57 1019.79 1020.01 1020.26 1020.55 1020.74 1020.87 1020.97 1021.19 1021.50 1021.76 1022.06 1022.31 1022.44 1022.55
1017.52 1018.49 1018.95 1018.20 1017.84 1017.09 1016.83 1016.73 1016.61 1016.48 1016.57 1016.53 1016.46 1016.72 1017.13 1016.97 1016.89 1017.10 1017.38 1017.64 1017.77 1017.80 1017.75 1017.57 1017.61 1017.58 1017.63 1017.82 1018.07 1018.30 1018.50 1018.76 1019.08 1019.33 1019.60 1019.92 1020.21 1020.51 1020.75 1020.96 1021.08 1021.18 1021.38 1021.63 1021.89 1022.20 1022.45 1022.72 1022.93
1017.81 1018.80 1018.32 1017.66 1017.19 1016.99 1016.87 1016.88 1016.97 1016.92 1017.09 1017.17 1017.17 1017.20 1017.65 1017.68 1018.14 1018.55 1019.09 1019.36 1019.21 1018.87 1018.49 1018.17 1017.87 1017.70 1017.67 1017.75 1017.94 1018.26 1018.57 1018.68 1018.88 1019.13 1019.45 1019.82 1020.20 1020.51 1020.72 1021.01 1021.26 1021.47 1021.69 1021.90 1022.09 1022.33 1022.66 1023.03 1023.41
1017.88 1018.10 1017.84 1017.35 1017.09 1016.98 1017.01 1017.02 1017.13 1017.44 1017.55 1017.89 1018.35 1018.60 1018.97 1019.33 1019.72 1020.11 1020.48 1020.63 1020.50 1020.06 1019.35 1018.94 1018.56 1017.93 1017.54 1017.59 1017.85 1018.18 1018.47 1018.69 1018.73 1019.00 1019.33 1019.69 1020.06 1020.42 1020.84 1021.17 1021.50 1021.64 1022.03 1022.33 1022.42 1022.79 1023.06 1023.25 1023.47
1017.72 1017.60 1017.61 1017.27 1017.11 1017.16 1017.15 1017.08 1017.36 1017.68 1017.86 1018.40 1019.18 1019.83 1020.50 1020.85 1021.14 1021.36 1021.33 1021.23 1020.87 1020.36 1019.90 1019.40 1018.97 1018.45 1017.69 1017.44 1017.63 1017.95 1018.37 1018.78 1019.05 1019.06 1019.25 1019.79 1020.21 1020.50 1020.90 1021.19 1021.55 1021.81 1022.05 1022.44 1022.79 1023.12 1023.26 1023.41 1023.56
1017.63 1017.57 1017.52 1017.34 1017.41 1017.41 1017.39 1017.50 1017.73 1017.61 1018.23 1018.88 1019.97 1020.85 1021.63 1022.05 1022.27 1022.29 1022.14 1021.70 1021.29 1020.79 1020.29 1019.63 1018.97 1018.45 1017.78 1017.48 1017.62 1017.99 1018.42 1018.76 1019.01 1019.23 1019.43 1019.71 1020.14 1020.58 1020.73 1021.04 1021.46 1021.75 1021.99 1022.21 1022.57 1023.03 1023.36 1023.58 1023.69
1017.65 1017.71 1017.61 1017.29 1017.29 1017.39 1017.47 1017.58 1017.96 1018.53 1018.62 1019.66 1020.72 1022.01 1022.68 1022.91 1023.12 1022.89 1022.62 1022.40 1021.77 1021.18 1020.47 1019.81 1019.04 1018.29 1017.58 1017.49 1017.90 1018.24 1018.60 1018.84 1019.12 1019.32 1019.51 1019.81 1020.04 1020.37 1020.63 1020.82 1021.19 1021.45 1021.75 1021.91 1022.18 1022.70 1023.25 1023.62 1023.90
1017.92 1018.13 1017.93 1017.31 1017.22 1017.26 1017.47 1017.78 1017.84 1018.43 1019.22 1020.53 1021.91 1022.76 1023.28 1023.62 1023.57 1023.57 1023.41 1023.01 1022.51 1021.77 1021.07 1020.08 1019.15 1018.38 1017.69 1017.68 1018.12 1018.57 1018.86 1019.15 1019.43 1019.66 1019.77 1019.81 1019.95 1020.12 1020.34 1020.73 1021.14 1021.09 1021.39 1021.91 1022.36 1022.77 1023.05 1023.37 1023.81
1018.63 1018.76 1018.71 1017.68 1017.50 1017.40 1017.65 1017.85 1017.71 1018.68 1019.75 1021.76 1022.82 1023.56 1023.89 1024.07 1024.19 1024.11 1023.85 1023.48 1022.88 1022.15 1021.31 1020.53 1019.72 1018.92 1018.28 1018.15 1018.49 1019.05 1019.59 1019.98 1020.37 1020.47 1020.40 1020.33 1020.31 1020.36 1020.44 1020.63 1020.83 1021.08 1021.40 1021.81 1022.26 1022.56 1023.08 1023.34 1023.65
1019.71 1019.50 1019.24 1018.30 1017.68 1017.68 1017.99 1018.33 1018.12 1019.28 1020.44 1022.51 1023.70 1024.37 1024.62 1024.70 1024.52 1024.38 1024.12 1023.76 1023.28 1022.62 1021.88 1021.15 1020.44 1019.82 1019.32 1019.18 1019.59 1020.13 1020.61 1021.01 1021.54 1021.58 1021.55 1021.42 1021.19 1020.96 1020.88 1021.05 1021.36 1021.57 1021.77 1021.93 1022.27 1022.87 1023.20 1023.38 1023.62
1019.74 1019.85 1019.40 1018.82 1018.24 1018.07 1018.54 1018.83 1018.74 1020.20 1021.16 1023.18 1024.27 1024.90 1025.18 1025.17 1025.19 1024.89 1024.41 1023.91 1023.43 1022.89 1022.27 1021.82 1021.39 1020.88 1020.59 1020.40 1020.69 1021.08 1021.45 1022.07 1022.31 1022.63 1022.69 1022.60 1022.43 1022.12 1021.94 1022.02 1022.11 1022.12 1022.36 1022.78 1023.04 1023.32 1023.61 1023.87 1023.93
1019.20 1019.56 1019.43 1018.85 1018.47 1018.75 1018.86 1019.48 1019.89 1021.40 1022.57 1023.87 1024.82 1025.40 1025.77 1025.80 1025.80 1025.50 1025.06 1024.51 1023.86 1023.15 1022.50 1022.13 1021.68 1021.63 1021.24 1021.11 1021.51 1022.16 1023.07 1023.61 1023.53 1023.66 1023.73 1023.58 1023.52 1023.24 1023.08 1023.16 1023.20 1023.17 1023.27 1023.50 1023.62 1023.83 1024.13 1024.13 1024.24
1019.45 1019.70 1019.64 1019.30 1018.93 1019.32 1019.43 1019.95 1020.90 1022.28 1023.49 1024.25 1024.96 1025.63 1026.07 1026.34 1026.35 1026.16 1025.94 1025.52 1025.06 1024.75 1024.05 1023.41 1022.99 1022.60 1021.93 1021.79 1022.33 1022.84 1023.62 1024.43 1024.74 1024.71 1024.80 1024.66 1024.29 1024.25 1024.19 1024.17 1024.15 1024.09 1023.95 1024.15 1024.29 1024.43 1024.59 1024.53 1024.47
1019.53 1019.67 1019.75 1019.67 1019.58 1019.70 1020.23 1020.66 1021.45 1023.05 1024.03 1024.97 1025.55 1025.83 1026.09 1026.47 1026.69 1026.78 1026.66 1026.51 1026.15 1025.73 1025.27 1024.81 1024.24 1023.84 1023.23 1022.90 1022.91 1023.33 1023.88 1024.65 1025.23 1025.70 1025.85 1025.83 1025.79 1025.67 1025.33 1024.96 1024.90 1025.03 1024.96 1025.00 1024.83 1024.84 1024.98 1025.16 1024.95
1019.26 1018.98 1019.36 1019.94 1020.53 1020.89 1020.94 1021.39 1021.48 1022.63 1023.84 1024.81 1025.61 1026.05 1026.29 1026.53 1026.81 1026.97 1027.16 1027.04 1026.92 1026.72 1026.22 1025.83 1025.52 1025.17 1024.72 1023.93 1023.99 1024.37 1025.15 1026.20 1027.22 1027.02 1027.05 1026.60 1026.44 1026.58 1026.53 1026.35 1026.04 1025.73 1025.90 1026.19 1025.98 1025.53 1025.47 1025.17 1025.27
1018.57 1018.91 1019.81 1020.40 1021.09 1021.55 1021.69 1022.41 1021.43 1022.69 1023.80 1024.83 1025.70 1026.40 1026.76 1026.87 1027.04 1027.22 1027.44 1027.54 1027.67 1027.61 1027.40 1027.10 1026.63 1026.23 1026.42 1025.86 1025.49 1025.91 1026.37 1027.02 1027.40 1027.50 1027.56 1027.45 1027.39 1027.25 1027.46 1027.30 1027.00 1026.85 1026.76 1026.81 1026.76 1026.42 1026.24 1026.31 1026.14
1018.47 1019.39 1020.61 1021.61 1022.32 1022.50 1021.75 1022.21 1021.68 1022.44 1022.58 1024.07 1025.19 1026.12 1026.34 1026.45 1026.69 1026.97 1027.22 1027.18 1027.22 1027.29 1027.43 1027.27 1027.17 1027.44 1027.18 1027.03 1026.85 1026.95 1027.24 1027.72 1027.79 1028.13 1028.29 1028.37 1028.32 1028.16 1028.12 1028.14 1027.90 1027.71 1027.81 1027.59 1027.51 1027.22 1026.96 1027.01 1026.71
1018.39 1019.84 1021.43 1022.66 1023.36 1022.73 1022.34 1022.69 1020.65 1021.01 1021.88 1022.69 1024.11 1025.37 1026.40 1026.89 1026.93 1027.02 1027.15 1027.57 1027.77 1027.60 1027.60 1027.59 1027.73 1027.81 1027.62 1027.54 1027.88 1028.07 1028.09 1028.03 1028.46 1028.95 1029.09 1028.98 1028.94 1029.01 1029.00 1028.81 1028.60 1028.45 1028.39 1028.36 1028.19 1027.97 1027.56 1027.31 1027.23
1018.35 1018.90 1020.41 1021.98 1023.55 1023.06 1022.76 1022.13 1020.83 1021.44 1022.13 1022.72 1023.60 1025.11 1026.23 1026.75 1027.10 1027.29 1027.68 1028.07 1028.31 1028.37 1028.39 1028.27 1028.25 1028.16 1028.20 1028.19 1028.29 1028.47 1028.67 1028.80 1029.03 1029.33 1029.38 1029.58 1029.45 1029.60 1029.48 1029.34 1029.10 1029.00 1028.78 1028.75 1028.55 1028.51 1028.10 1027.76 1027.56
1018.52 1019.11 1019.37 1021.45 1023.87 1023.47 1021.48 1020.87 1020.82 1021.73 1022.37 1023.16 1024.06 1025.00 1025.75 1026.28 1026.84 1027.34 1027.46 1027.57 1027.70 1028.14 1028.53 1028.42 1028.17 1028.55 1028.64 1028.78 1028.98 1028.91 1028.85 1029.13 1029.45 1029.73 1029.46 1029.67 1029.78 1029.62 1029.92 1029.53 1029.37 1029.30 1029.16 1028.90 1028.86 1028.83 1028.41 1028.24 1027.88
1017.64 1018.46 1019.91 1021.33 1023.09 1022.90 1021.06 1020.75 1020.05 1020.97 1021.76 1023.29 1024.59 1024.50 1025.02 1025.51 1026.26 1026.82 1027.21 1027.52 1027.61 1027.99 1028.35 1028.51 1028.47 1028.58 1028.80 1028.99 1028.89 1029.03 1029.32 1029.35 1029.50 1029.62 1029.74 1029.79 1029.58 1029.68 1029.63 1029.60 1029.38 1029.43 1029.45 1029.32 1029.08 1028.52 1028.29 1028.14 1027.75
1018.25 1018.51 1019.44 1020.44 1021.53 1021.91 1021.63 1019.87 1019.25 1019.82 1020.90 1022.18 1023.83 1024.27 1024.31 1024.94 1025.67 1026.21 1026.72 1027.18 1027.57 1027.83 1027.98 1028.22 1028.53 1028.67 1028.79 1029.01 1029.03 1029.04 1029.36 1029.54 1029.68 1029.82 1029.81 1029.87 1029.95 1029.91 1029.70 1029.45 1029.46 1029.45 1029.30 1029.23 1029.05 1028.70 1028.29 1027.85 1027.41
1017.61 1017.92 1018.50 1019.67 1021.11 1021.61 1021.66 1019.10 1019.41 1019.61 1020.20 1021.40 1022.45 1023.55 1023.97 1024.42 1025.11 1025.65 1026.19 1026.77 1027.05 1027.40 1027.78 1028.19 1028.34 1028.57 1028.62 1028.69 1028.91 1029.16 1029.38 1029.54 1029.61 1029.73 1029.83 1029.93 1030.01 1029.95 1029.93 1029.79 1029.72 1029.59 1029.32 1029.06 1028.77 1028.45 1028.04 1027.56 1027.25
Wind_Speed
5 4 3 6 6 7 1 1 1 2 1 1 1 3 2 2 3 4 4 6 1 6 10 10 11 11 12 10 10 9 9 8 8 8 9 9 7 10 11 10 10 9 8 7 7 8 9 10 10
3 1 5 3 7 5 4 4 1 1 1 0 2 2 3 1 1 5 2 6 3 6 7 7 10 11 10 11 10 9 8 8 7 7 7 7 7 8 8 9 9 9 8 7 7 8 9 9 9
2 4 5 6 4 4 4 3 2 3 1 1 1 1 3 1 1 2 2 7 5 6 6 7 10 10 11 12 11 10 9 8 8 8 8 7 7 6 9 10 8 8 7 6 6 6 8 8 9
3 5 5 6 2 1 2 1 3 2 2 3 1 2 3 2 1 2 2 7 6 5 5 7 11 10 12 12 13 12 11 10 10 9 8 8 10 9 10 10 8 7 7 5 5 6 7 8 8
5 4 5 4 3 3 3 2 1 1 1 2 2 2 3 3 2 2 3 4 5 5 4 5 11 10 11 11 11 10 10 10 10 9 9 7 8 10 8 7 4 5 4 4 4 5 6 6 7
5 4 6 2 2 3 3 3 1 2 2 2 2 3 3 3 1 2 2 2 4 6 6 6 8 9 9 11 10 10 10 10 10 9 9 10 9 8 7 6 4 2 2 2 2 4 5 6 6
7 5 4 4 1 3 2 6 3 1 3 2 1 3 4 4 6 1 3 2 1 2 4 4 5 7 9 10 10 11 10 9 9 8 8 9 9 8 7 6 4 2 1 0 1 3 4 5 5
6 6 3 2 1 1 3 3 3 1 2 5 0 2 4 4 6 3 4 5 4 2 2 3 3 6 4 4 11 9 10 10 8 6 6 6 8 9 8 6 5 4 3 2 3 2 3 4 6
3 6 1 3 5 2 2 4 1 3 1 5 2 2 4 5 4 5 6 6 6 5 4 3 3 7 9 6 3 6 8 7 7 6 5 4 3 5 5 3 4 3 4 4 4 2 1 6 7
6 4 7 3 2 1 2 1 2 3 6 2 3 5 10 8 10 10 9 8 9 10 8 6 5 5 5 4 4 5 4 5 5 5 6 4 5 5 5 5 4 2 3 1 3 2 7 6 3
2 4 3 2 3 0 2 3 3 2 4 2 2 7 10 10 11 11 8 6 6 6 6 8 8 6 8 5 3 2 3 1 3 5 4 3 2 3 3 2 1 2 2 2 3 4 3 3 2
1 3 4 2 1 1 2 3 4 5 3 5 6 7 6 12 10 9 9 9 10 9 8 9 8 7 8 6 4 3 3 2 1 2 5 3 2 3 3 3 3 3 2 2 1 1 1 1 2
2 2 1 3 4 5 3 4 4 8 5 9 10 12 10 9 8 7 8 7 8 10 11 12 9 7 5 9 3 3 2 2 3 2 3 3 3 3 4 4 3 3 3 3 4 3 2 1 2
1 2 6 6 2 3 4 2 2 5 4 10 11 10 8 10 9 7 11 11 11 10 11 11 10 9 5 3 3 3 1 3 1 2 2 3 3 3 3 4 5 4 4 3 4 4 3 2 1
1 4 7 4 2 4 6 1 6 4 6 10 9 8 9 10 11 10 8 7 8 8 10 12 11 10 6 5 5 3 2 3 2 3 4 3 3 5 4 3 3 4 4 4 3 2 2 2 0
3 4 4 2 2 1 4 7 2 5 9 7 8 7 7 10 8 9 10 9 10 9 11 10 10 11 10 8 7 6 8 8 7 7 6 6 4 3 2 3 3 3 3 3 3 3 2 2 2
6 3 4 9 2 2 2 6 6 4 9 7 7 7 7 8 10 10 9 9 10 9 10 12 12 12 11 13 11 12 13 11 9 9 10 13 13 10 5 4 5 3 1 2 2 1 0 2 1
6 4 4 5 1 3 1 8 10 7 8 7 6 6 7 7 8 8 8 8 7 7 8 9 10 12 9 8 10 10 11 10 10 11 11 15 12 13 9 8 8 6 4 4 3 3 2 2 3
5 4 5 3 3 2 7 7 7 4 7 7 6 6 6 6 6 6 8 8 8 9 11 11 11 9 7 5 4 7 8 7 9 10 13 14 13 14 13 9 9 8 7 5 5 2 3 3 3
3 3 6 5 3 5 4 9 3 5 3 5 7 6 5 4 6 7 9 11 11 9 10 12 12 11 9 4 3 4 4 5 6 7 12 12 12 13 11 10 9 9 7 8 7 5 3 2 1
5 7 5 7 2 1 2 8 3 4 5 5 4 4 5 5 4 5 7 8 8 10 10 10 9 10 9 8 4 4 5 4 5 8 8 12 13 13 12 11 10 10 9 7 6 4 4 3 2
5 8 6 4 4 5 1 6 4 5 5 5 5 5 6 5 3 4 5 6 7 8 8 9 10 11 10 9 12 15 10 9 4 5 5 8 12 12 12 12 11 10 7 9 8 8 4 3 2
7 5 6 4 4 2 3 1 8 4 6 6 6 5 5 5 5 4 5 6 6 7 8 7 8 12 11 11 10 9 12 7 3 4 8 9 9 11 11 11 10 10 8 9 10 9 8 4 4
9 7 7 5 3 1 8 7 4 6 5 6 6 7 8 8 7 5 4 5 4 4 4 5 8 8 8 9 10 11 11 7 8 7 7 6 5 7 10 9 9 9 9 9 7 7 8 7 5
5 6 1 4 2 7 1 2 9 7 5 7 15 12 8 6 6 6 6 4 4 5 4 5 6 8 7 9 9 8 8 9 9 6 5 6 5 4 7 8 8 6 6 7 7 7 6 7 6
7 7 7 8 5 5 1 7 7 2 4 6 11 10 7 7 6 6 5 4 4 5 5 5 6 8 7 7 7 6 7 6 5 5 4 4 4 4 6 6 6 6 6 6 6 4 4 6 5
5 4 4 7 2 3 6 5 3 1 3 5 7 8 9 8 7 7 6 6 6 6 5 6 7 7 6 6 5 6 6 7 6 5 5 4 4 4 5 5 6 6 6 6 6 4 5 5 4
3 6 4 3 1 6 4 5 7 7 9 7 8 11 10 8 8 7 7 7 5 5 5 5 5 6 5 5 5 5 6 6 6 5 6 5 5 5 5 6 5 5 5 5 5 4 5 5 4
3 3 4 4 5 6 2 6 6 8 9 14 12 11 10 10 9 8 7 6 6 5 6 6 6 6 5 5 4 6 5 6 5 5 5 5 4 5 6 6 6 6 6 5 5 5 6 8 7
1 6 7 7 6 2 2 9 3 3 10 15 13 12 7 7 8 8 8 8 7 7 6 7 6 6 6 5 5 5 5 4 5 5 5 6 6 5 6 6 6 6 7 6 7 9 8 7 10
Wind_Direction
356 20 66 43 59 66 342 285 251 345 30 232 139 124 147 165 148 205 271 193 73 147 162 171 175 172 165 158 147 146 142 136 125 120 117 121 116 104 93 91 84 76 73 64 61 56 49 45 42
354 97 44 76 82 68 282 272 231 243 286 340 103 68 51 344 269 293 8 185 175 154 160 166 176 171 171 156 152 149 147 145 139 132 130 129 119 106 108 103 90 80 72 64 61 56 52 43 42
149 46 81 92 107 148 185 231 235 294 358 57 64 83 151 294 265 230 268 149 145 156 162 172 177 176 159 158 158 158 158 161 161 158 152 154 146 135 128 111 96 83 76 69 67 52 46 36 33
54 13 39 77 94 222 199 288 243 331 25 42 122 54 312 222 271 303 360 147 139 161 162 174 182 179 166 165 167 168 169 173 174 172 171 172 173 153 128 114 118 107 86 57 53 45 38 32 27
35 56 56 74 314 286 281 331 153 347 325 334 7 335 294 355 342 50 98 134 157 168 163 173 185 188 176 171 175 175 178 183 182 182 187 182 148 130 126 141 144 123 92 49 41 41 39 30 29
43 88 61 139 263 296 317 5 79 358 326 331 37 355 279 291 340 99 102 165 193 178 179 179 191 190 188 175 183 183 189 196 189 195 208 168 156 148 154 163 168 135 65 16 0 41 37 32 32
104 77 157 168 271 342 322 327 84 200 338 339 266 356 283 46 338 81 139 89 173 214 189 194 194 202 191 182 182 186 192 203 203 205 198 182 164 162 165 163 177 208 144 192 80 38 30 26 33
100 92 102 234 178 199 328 1 143 116 300 308 222 308 322 3 359 72 66 42 17 6 312 267 239 209 220 212 209 205 193 192 207 215 212 190 170 169 176 180 181 171 174 179 124 66 27 19 21
115 61 160 216 159 206 345 33 1 312 311 345 333 33 337 336 9 35 14 15 14 355 308 293 251 228 224 212 217 204 197 186 199 201 212 186 170 175 178 172 187 173 154 184 150 126 59 50 19
81 105 219 218 214 228 321 106 337 15 353 292 346 335 352 8 21 33 23 3 353 339 334 322 279 235 227 226 210 195 211 210 197 195 193 167 179 176 176 175 186 176 147 169 166 150 90 60 28
139 170 203 251 237 91 303 307 156 131 298 217 305 327 11 31 36 36 24 17 340 322 350 346 336 285 230 207 180 176 204 221 198 187 184 184 169 150 144 127 157 126 78 28 59 63 70 64 49
91 220 189 263 185 36 279 320 310 179 187 136 73 63 42 29 27 20 9 359 351 345 338 334 333 318 259 229 194 172 168 171 245 212 153 149 153 151 159 154 165 159 138 141 110 97 116 61 11
162 272 212 276 279 259 344 247 246 265 52 87 80 59 47 36 22 11 357 360 352 355 340 336 326 322 280 232 214 155 160 170 191 186 166 141 159 176 163 174 163 178 163 174 175 184 203 268 314
213 302 289 284 226 243 219 228 158 60 106 71 63 61 48 40 17 11 12 358 358 343 344 333 334 327 290 183 157 143 148 248 156 176 203 179 176 177 196 175 188 175 189 201 173 174 190 234 303
76 333 325 268 319 202 169 271 227 115 96 78 58 52 50 36 25 19 358 350 344 337 330 351 346 345 19 100 108 97 71 58 14 338 327 285 209 208 192 163 183 203 177 172 161 160 153 178 211
29 55 360 307 129 341 142 256 274 93 92 74 65 49 47 38 28 11 1 355 352 349 357 351 359 9 31 59 70 62 50 51 39 29 16 360 329 299 221 217 217 196 177 168 174 152 200 218 203
5 241 206 319 4 139 135 269 268 58 93 97 71 50 42 31 26 14 5 359 355 353 1 9 10 17 43 64 64 62 56 52 43 37 31 23 26 16 5 0 356 340 296 137 141 61 0 242 241
202 215 240 236 289 42 150 266 284 23 90 105 90 66 48 43 18 358 3 1 359 4 20 25 27 24 22 57 64 64 61 53 48 42 36 30 28 31 34 33 30 22 22 22 20 37 55 357 333
148 182 214 248 231 162 243 243 286 48 83 103 98 84 63 43 353 359 2 360 10 23 32 31 42 26 45 42 58 56 56 39 46 46 40 38 32 30 34 36 31 20 41 40 44 50 14 2 3
142 168 238 286 248 167 280 264 101 26 54 143 137 119 102 68 23 8 6 11 15 10 18 25 29 28 40 59 62 86 95 61 61 48 43 37 40 37 38 35 35 32 36 35 32 29 6 10 40
197 197 192 219 1 275 349 292 181 53 79 66 70 115 104 108 81 28 19 13 3 17 10 24 25 32 39 40 79 90 81 66 42 32 39 32 33 32 36 42 40 30 28 32 34 30 26 354 348
198 200 192 170 112 230 106 272 298 168 155 158 160 148 146 137 86 54 34 31 16 11 9 21 29 33 32 48 69 70 77 77 23 41 39 45 41 39 37 38 37 41 38 28 13 12 12 19 347
211 125 160 154 144 92 276 339 257 133 227 200 199 184 172 156 139 111 69 47 26 17 17 14 36 47 35 45 65 81 85 87 84 57 52 37 36 37 31 33 38 41 37 29 23 17 22 13 352
145 79 53 53 75 303 228 183 257 195 206 164 173 191 191 181 169 146 122 109 103 76 57 46 61 51 46 58 62 76 85 80 72 52 51 33 25 33 29 26 29 32 27 24 18 22 29 15 12
97 103 14 355 5 230 342 157 244 188 191 188 183 187 195 197 170 171 157 137 115 109 96 75 76 69 58 68 64 72 78 79 77 68 63 54 38 28 19 18 24 27 20 17 10 16 20 17 15
181 162 156 205 199 251 127 234 265 297 327 265 160 167 173 193 201 188 169 150 138 110 93 102 97 87 73 77 74 71 70 76 73 71 66 54 49 34 13 16 21 18 18 10 9 4 2 4 1
188 188 159 105 54 60 210 278 250 31 44 90 134 151 192 200 198 192 180 180 162 149 147 133 105 96 91 98 100 79 81 79 80 72 68 58 43 27 18 23 21 14 12 14 2 354 345 341 330
156 161 80 4 227 263 258 256 225 220 200 160 183 193 203 200 195 192 194 189 178 163 151 129 128 133 134 113 99 95 88 79 81 76 58 43 31 22 16 12 14 4 357 352 354 348 331 329 318
146 179 74 134 151 187 283 253 213 220 171 179 203 211 200 198 198 191 194 190 182 171 166 158 157 149 138 122 111 103 91 75 65 58 43 31 17 12 10 5 0 355 349 339 331 318 311 320 312
322 200 162 178 223 257 138 263 14 283 175 176 192 210 209 199 197 192 189 189 181 189 181 181 172 169 169 160 136 117 106 85 63 46 33 22 16 12 3 359 353 343 337 333 329 321 316 305 306